Weather History for KFLL - January, 2014

Change the Weather History Date:

Thursday, January 2, 2014

  Actual Average Record
Temperature  
Mean Temperature 77 °F 69 °F  
Max Temperature 83 °F 76 °F 86 °F (1924)
Min Temperature 71 °F 62 °F 32 °F (1949)
Degree Days  
Heating Degree Days 0 2  
Month to date heating degree days 0 4  
Since 1 July heating degree days 4 36  
Cooling Degree Days 12 6  
Month to date cooling degree days 22 12  
Year to date cooling degree days 22 12  
Growing Degree Days 26 (Base 50)    
Moisture  
Dew Point 68 °F    
Average Humidity 78    
Maximum Humidity 93    
Minimum Humidity 62    
Precipitation  
Precipitation 0.00 in 0.08 in 2.80 in (1958)
Month to date precipitation 0.05 0.18  
Year to date precipitation 0.05 0.18  
Snow  
Snow 0.00 in - - ()
Month to date snowfall 0.0  
Since 1 July snowfall 0.0  
Snow Depth 0.00 in    
Sea Level Pressure  
Sea Level Pressure 29.97 in    
Wind  
Wind Speed 9 mph (SSW)    
Max Wind Speed 18 mph    
Max Gust Speed 28 mph    
Visibility 10 miles    
Events      
T = Trace of Precipitation, MM = Missing Value Source: NWS Daily Summary

Daily Weather History Graph

Daily Weather History Graph

Search for Another Location

Airport or City:

Trip Planner

Search our weather history database for the weather conditions in past years. The results will help you decide how hot, cold, wet, or windy it might be!

Date:

Astronomy

Jan. 02, 2014 Rise Set
Actual Time 7:08 AM EST 5:41 PM EST
Civil Twilight 6:43 AM EST 6:06 PM EST
Nautical Twilight 6:14 AM EST 6:35 PM EST
Astronomical Twilight 5:46 AM EST 7:03 PM EST
Moon 7:58 AM EST (1/2) 7:23 PM EST (1/2)
Length of Visible Light 11h 23m
Length of Day
10h 33m
New Moon, 2% of the Moon is Illuminated
Jan 2
New Moon
Jan 7
First Quarter
Jan 15
Full
Jan 24
Last Quarter
Jan 30
New

Hourly Weather History & Observations

Time (EST) Temp. Heat Index Dew Point Humidity Pressure Visibility Wind Dir Wind Speed Gust Speed Precip Events Conditions
12:53 AM 72.0 °F - 70.0 °F 93% 30.04 in 10.0 mi South 4.6 mph - N/A   Partly Cloudy
1:53 AM 72.0 °F - 69.1 °F 91% 30.02 in 10.0 mi South 4.6 mph - N/A   Partly Cloudy
2:53 AM 71.1 °F - 68.0 °F 90% 30.00 in 10.0 mi South 3.5 mph - N/A   Scattered Clouds
3:53 AM 73.0 °F - 69.1 °F 87% 30.00 in 10.0 mi SSE 9.2 mph - N/A   Partly Cloudy
4:53 AM 72.0 °F - 68.0 °F 87% 30.00 in 10.0 mi South 6.9 mph - N/A   Partly Cloudy
5:53 AM 72.0 °F - 66.0 °F 81% 30.00 in 10.0 mi SSE 5.8 mph - N/A   Partly Cloudy
6:53 AM 72.0 °F - 66.9 °F 84% 30.00 in 10.0 mi South 4.6 mph - N/A   Partly Cloudy
7:53 AM 73.0 °F - 68.0 °F 84% 30.02 in 10.0 mi South 4.6 mph - N/A   Partly Cloudy
8:53 AM 75.0 °F - 68.0 °F 79% 30.03 in 10.0 mi South 8.1 mph - N/A   Partly Cloudy
9:53 AM 75.9 °F - 68.0 °F 76% 30.03 in 10.0 mi South 15.0 mph - N/A   Scattered Clouds
10:53 AM 79.0 °F - 66.9 °F 66% 30.01 in 10.0 mi South 13.8 mph - N/A   Mostly Cloudy
11:53 AM 81.0 °F 83.0 °F 66.0 °F 60% 29.98 in 10.0 mi South 11.5 mph - N/A   Scattered Clouds
12:53 PM 82.0 °F 84.9 °F 68.0 °F 62% 29.94 in 10.0 mi South 13.8 mph 19.6 mph N/A   Scattered Clouds
1:53 PM 81.0 °F 84.1 °F 69.1 °F 67% 29.91 in 10.0 mi South 13.8 mph 23.0 mph N/A   Mostly Cloudy
2:53 PM 80.1 °F 82.9 °F 69.1 °F 69% 29.89 in 10.0 mi SSW 10.4 mph 17.3 mph N/A   Scattered Clouds
3:53 PM 81.0 °F 83.3 °F 66.9 °F 62% 29.89 in 10.0 mi South 11.5 mph 21.9 mph N/A   Mostly Cloudy
4:53 PM 80.1 °F 82.3 °F 66.9 °F 64% 29.90 in 10.0 mi SW 11.5 mph - N/A   Scattered Clouds
5:53 PM 78.1 °F - 66.9 °F 68% 29.90 in 10.0 mi WSW 11.5 mph 20.7 mph N/A   Partly Cloudy
6:53 PM 75.9 °F - 66.0 °F 71% 29.93 in 10.0 mi SW 9.2 mph - N/A   Partly Cloudy
7:53 PM 73.9 °F - 68.0 °F 82% 29.94 in 10.0 mi SW 8.1 mph - N/A   Partly Cloudy
8:53 PM 73.0 °F - 69.1 °F 87% 29.95 in 10.0 mi WSW 8.1 mph - N/A   Clear
9:53 PM 72.0 °F - 70.0 °F 93% 29.95 in 10.0 mi WSW 8.1 mph 16.1 mph N/A   Clear
10:53 PM 72.0 °F - 70.0 °F 93% 29.95 in 10.0 mi SW 5.8 mph - N/A   Scattered Clouds
11:53 PM 71.1 °F - 70.0 °F 96% 29.95 in 9.0 mi SW 5.8 mph - N/A   Partly Cloudy